Regional Weather Roundup
Issued by NWS Grand Forks, ND

Home | Current Version | Previous Version | Text Only | Print | Product List | Glossary Off
Versions: 1 2 3 4 5 6 7 8 9 10 11 12 13 14 15 16 17 18 19 20 21 22 23 24 25 26 27 28 29 30 31 32 33 34 35 36 37 38 39 40 41 42 43 44 45 46 47 48 49 50

000
ASUS43 KFGF 021131
RWRFGF
PRAIRIE TO PINES  WEATHER ROUNDUP
NATIONAL WEATHER SERVICE EASTERN NORTH DAKOTA/GRAND FORKS ND
600 AM CDT MON MAY 02 2016

 **SATELLITE DATA USED TO AUGMENT SKY COVER AT AUTOMATED STATIONS**
 *****  WEATHER ACROSS EASTERN NORTH DAKOTA  *****

CITY           SKY/WX    TMP DP  RH WIND       PRES   REMARKS
GRAND FORKS    MOCLDY    39  31  72 S3        30.04F
GRAND FRKS AFB CLOUDY    44  32  62 W5        30.04F
DEVILS LAKE    CLOUDY    53  35  50 S7        30.02F
FARGO          PTCLDY    42  31  64 S3        30.06F
WAHPETON ARPT  CLOUDY    39  32  75 CALM      30.08F
$$

 ***** WEATHER ACROSS CENTRAL AND WESTERN NORTH DAKOTA  *****

CITY           SKY/WX    TMP DP  RH WIND       PRES   REMARKS
BISMARCK       CLOUDY    44  37  76 S8        30.05F
MINOT          CLOUDY    54  35  48 SW14      29.97F
JAMESTOWN      CLOUDY    45  32  60 SW7       30.05F
MINOT AFB      MOCLDY    48  38  66 W5        29.97S
GARRISON         N/A     49  36  61 N5        30.02S
WILLISTON      CLOUDY    51  35  54 W18       30.04F
DICKINSON      MOCLDY    41  32  70 W10       30.06F
HETTINGER      CLOUDY    39  34  82 NW6       30.11F
$$

 *****  OTHER AIRPORT OBSERVATIONS IN OUR AREA  *****

CITY           SKY/WX    TMP DP  RH WIND       PRES   REMARKS
WALHALLA       FAIR      50  32  50 SW5       30.03S
GRAFTON AIRPOR FAIR      41  32  70 CALM      30.06R
VALLEY CITY AR FAIR      37  32  81 CALM      30.08F
CANDO          CLOUDY    54  37  54 S6        30.05S
CAVALIER APRT  CLOUDY    48  32  53 SW7       30.03S
GWINNER        FAIR      43  37  81 SW8       30.09S
SHEYENNE NWR     N/A     39  33  79 W5        29.95S
ROLLA          FAIR      46  37  71 SW8       29.99F
 ***** THE ABOVE OBSERVATIONS ARE NON NWS ARE NOT QUALITY
       CONTROLLED AND MAY MIS-REPORT RAIN FOR SNOW...
$$

  *****  WEATHER ACROSS NORTHERN MINNESOTA  *****

CITY           SKY/WX    TMP DP  RH WIND       PRES   REMARKS
FLAG ISLAND    PTCLDY    43  34  70 CALM      30.08S
WARROAD        CLEAR     36  34  93 E3        30.09S
ROSEAU         CLOUDY    41  32  70 S6        30.08S
HALLOCK        CLOUDY    46  28  49 SE3       30.04S
THF RVR FALLS  PTCLDY    41  28  60 E6        30.08S
BAUDETTE       PTCLDY    34  31  88 SE6       30.09S
WASKISH        CLEAR     36  34  93 CALM      30.09S
CROOKSTON      PTCLDY    45  30  57 S5        30.07S
STEPHEN NDAWN    N/A     43  30  61 S3          N/A
GREENBUSH NDAW   N/A     43  34  70 SE2         N/A
$$
  *****  WEATHER ACROSS CENTRAL AND WEST MINNESOTA  *****

CITY           SKY/WX    TMP DP  RH WIND       PRES   REMARKS
FOSSTON        CLEAR     37  28  70 CALM      30.08S
BEMIDJI        MOCLDY    32  29  88 CALM      30.09S
PARK RAPIDS    PTCLDY    38  30  73 CALM      30.08S
ELBOW LAKE     FAIR      41  33  73 CALM      30.10R
WADENA         PTCLDY    34  28  80 CALM      30.09S
DETROIT LAKES  CLOUDY    43  37  81 S3        30.08F
MOORHEAD       PTCLDY    43  34  70 SE5       30.07F
FERGUS FALLS   CLOUDY    43  34  70 SE3       30.07F
MORRIS MN      CLOUDY    37  32  81 S3        30.09S
STAPLES        CLEAR     34  30  86 CALM      30.10S
$$
  *****  WEATHER ELSEWHERE ACROSS MINNESOTA  *****

CITY           SKY/WX    TMP DP  RH WIND       PRES   REMARKS
DULUTH         CLEAR     32  29  88 CALM      30.12R
INTRNTL FALLS  CLEAR     29  26  89 CALM      30.10S
ELY            CLEAR     27  27 100 CALM      30.12S
CLOQUET        CLEAR     28  27  93 CALM      30.12S
WHEATON        CLOUDY    41  36  81 S5        30.10F
BRAINERD       CLEAR     31  29  92 CALM      30.11F
HIBBING        CLEAR     26  25  96 CALM      30.12S
ALEXANDRIA     CLEAR     42  30  62 SW7       30.10F
SAINT CLOUD    CLEAR     32  31  96 CALM      30.11F
MINNEAPOLIS    CLEAR     41  36  82 NW5       30.11S
$$

  *****  WEATHER ACROSS SOUTH DAKOTA  *****

CITY           SKY/WX    TMP DP  RH WIND       PRES   REMARKS
SIOUX FALLS    PTCLDY    35  32  88 CALM      30.13F
BROOKINGS      CLOUDY    33  31  92 CALM      30.11F
WATERTOWN      MOCLDY    34  30  85 CALM      30.10F
HURON          PTCLDY    37  32  82 CALM      30.12F
SISSETON         N/A     49  34  56 W10       30.07F
ABERDEEN       MOCLDY    36  32  85 S6        30.10F
MITCHELL       CLEAR     39  34  82 W3        30.14S
PIERRE         CLEAR     37  32  82 SW7       30.13F
MOBRIDGE       MOCLDY    43  36  76 SE9       30.06F
RAPID CITY     CLEAR     37  28  70 W7        30.16F
$$

  *****  SOME WEATHER IN NEARBY STATES *****

CITY           SKY/WX    TMP DP  RH WIND       PRES   REMARKS
GLASGOW MT     PTCLDY    45  34  65 W6        30.12S
GREAT FALLS MT CLEAR     36  32  85 SW10      30.18S
CHEYENNE WY    CLEAR     26  20  77 W12       30.23S WCI  16
SCOTTSBLUFF NE CLEAR     32  27  81 NW9       30.23S WCI  24
OMAHA NE       MOCLDY    44  41  89 N6        30.13S
DES MOINES IA  PTCLDY    42  40  92 CALM      30.11S FOG
DAVENPORT IA   CLOUDY    47  45  93 NE7       30.08R
CHICAGO IL     MOCLDY    45  37  73 N7        30.04R
EAU CLAIRE WI  PTCLDY    35  34  96 CALM      30.11S
LA CROSSE WI   PTCLDY    37  34  89 E5        30.12S
$$

  *****  SOME NATIONAL WEATHER *****

CITY           SKY/WX    TMP DP  RH WIND       PRES   REMARKS
LA GUARDIA NY  CLOUDY    47  44  90 NE7       30.00S FOG
RALEIGH NC     CLOUDY    66  66 100 SW7       30.01R
ATLANTA GA     MOCLDY    67  64  90 CALM      30.02R
NEW ORLEANS LA MOCLDY    71  67  87 NE6       29.92S
OKLAHOMA CITY  MOCLDY    48  43  82 N13       30.13R
ALBUQUERQUE NM PTCLDY    38  30  73 E10       30.26S
SALT LAKE CITY PTCLDY    43  34  70 CALM      30.14R
LOS ANGELES CA PTCLDY    57  53  86 W3        30.00F
BOISE ID       CLEAR     49  37  63 CALM      30.10R
SEATTLE WA     CLEAR     56  43  61 CALM      29.96S
$$

*** WEATHER ACROSS MANITOBA...SASKATCHEWAN AND ONTARIO ***
                ***ONTARIO***

CITY           SKY/WX    TMP DP  RH WIND       PRES   REMARKS
GERALDTON      CLEAR     25  23  93 CALM      30.13R
THUNDER BAY    CLEAR     27  27 100 SW3       30.14R
SIOUX LOOKOUT  MOCLDY    32  32 100 S3        30.08S
TORONTO        MOCLDY    43  39  87 N10       29.99R
BIG TROUT LK   CLOUDY    41  32  70 SW3       29.99S
PICKLE LAKE    MOCLDY    36  27  69 SW5       30.05
DRYDEN         PTCLDY    41  34  75 S3        30.08S
KENORA         MOCLDY    43  28  56 S6        30.08S
$$
                *** MANITOBA***

CITY           SKY/WX    TMP DP  RH WIND       PRES   REMARKS
BRANDON        PTCLDY    41  39  93 E9        30.00R
DAUPHIN        CLEAR     39  39 100 S9        30.02S
ISLAND LAKE    CLEAR     34  30  86 CALM      30.01
PILOT MOUND      N/A     48  41  76 S10         N/A
THE PAS        MOCLDY    41  39  93 VRB2      30.03F
THOMPSON       CLEAR     37  36  93 SW2       29.94
WINNIPEG       CLOUDY    50  32  50 S8        30.04R
LYNN LAKE      MOCLDY    37  32  81 SW8       29.92F
CHURCHILL      CLOUDY    36  32  87 W6        29.79F
GILLAM         CLOUDY    43  37  81 SW9       29.89F
$$
                ***SASKATCHEWAN***

CITY           SKY/WX    TMP DP  RH WIND       PRES   REMARKS
ESTEVAN        NOT AVBL
KINDERSLEY     PTCLDY    39  32  75 SW5       30.07S
LLOYDMINSTER   CLEAR     45  37  76 W9        30.04S
PRINCE ALBERT  PTCLDY    36  32  87 CALM      30.04R
REGINA         PTCLDY    37  32  81 N3        30.03R
YORKTON        FOG       39  39 100 N2        30.02R VSB 3/4
N. BATTLEFORD  CLEAR     37  32  81 W3        30.05S
LA RONGE       PTCLDY    36  30  80 CALM      30.01S
SASKATOON      PTCLDY    37  34  87 S2        30.03S
SWIFT CURRENT  CLEAR     45  36  70 W12       30.09R
$$
NOTE: THESE ARE AUTOMATED STATIONS WITH LIMITED QUALITY CONTROL
      "FAIR" INDICATES FEW OR NO CLOUDS BELOW 12,000 FEET WITH NO
      SIGNIFICANT WEATHER AND/OR OBSTRUCTIONS TO VISIBILITY.
      SKY/WX - SKY CONDITION AND SIGNIFICANT WEATHER.
      TMP - AIR TEMPERATURE.    DP   - DEWPOINT TEMPERATURE.
      RH  - RELATIVE HUMIDITY.  PRES - PRESSURE.
      HX  - HEAT INDEX.         WCI  - WIND CHILL INDEX.
$



USA.gov is the U.S. government's official web portal to all federal, state and local government web resources and services.